GORIZONT 25 1 21922U 92017A 10072.39041054 -.00000126 00000-0 10000-3 0 3292 2 21922 12.0218 39.6031 0027976 305.7957 53.9929 0.99842021 65633 GORIZONT 26 1 22041U 92043A 10072.14499030 -.00000155 00000-0 10000-3 0 9364 2 22041 11.8971 40.9972 0027316 111.7703 248.5747 0.99246180 64543 GORIZONT 27 1 22245U 92082A 10071.49745817 .00000096 00000-0 10000-3 0 5197 2 22245 11.8051 42.0165 0014443 240.9962 118.9005 1.00146647 67634 GORIZONT 28 1 22880U 93069A 10071.82072066 -.00000248 00000-0 10000-3 0 3282 2 22880 11.3513 45.2977 0031567 2.5229 357.5538 0.99652048 59948 GORIZONT 29 1 22907U 93072A 10071.63938192 .00000000 00000-0 10000-3 0 7386 2 22907 11.3296 45.3645 0013372 222.7234 137.2377 1.00157750 59717 GORIZONT 30 1 23108U 94030A 10071.68909676 -.00000104 00000-0 10000-3 0 5570 2 23108 11.1828 46.6163 0001874 241.3989 118.6487 1.00276398 57923 GORIZONT 31 1 23775U 96005A 10071.64459346 -.00000005 00000-0 10000-3 0 9286 2 23775 10.1695 52.2919 0018706 73.2652 287.0270 0.99896907 51710 GORIZONT 32 1 23880U 96034A 10072.79924231 -.00000119 00000-0 10000-3 0 4160 2 23880 10.0359 53.3083 0003830 310.8094 80.6894 1.00274235 50545 GORIZONT 33 1 26372U 00029A 10069.74038242 -.00000116 00000-0 10000-3 0 6773 2 26372 7.3145 62.2816 0003345 286.9814 73.1154 1.00255156 35846